Location: La Comballaz
(46.3780°N, 7.0817°E)
Time: 19:34:37
(UTC+00:00)

AO-7 - Pass Details

Date: 15 December 2022
Orbit: 1440 x 1458 km, 101.9° (Epoch: 07 February)

Event Time Altitude Azimuth Distance (km) Brightness Sun altitude
Rises 06:06:27 0° 14° (NNE) 4,548 ? -10.2°
Reaches altitude 10° 06:09:33 10° 6° (N) 3,568 ? -9.7°
Maximum altitude 06:16:37 33° 307° (NW) 2,252 ? -8.6°
Drops below altitude 10° 06:23:42 10° 248° (WSW) 3,566 ? -7.5°
Sets 06:26:48 0° 240° (WSW) 4,544 ? -7.0°
